Location: Kalisz
(51.7636°N, 18.0893°E)
Time: 12:08:25
(UTC+02:00)

ISS - Pass Details

Date: 28 March 2019
Orbit: 408 x 410 km, 51.6° (Epoch: 24 April)

Event Time Altitude Azimuth Distance (km) Brightness Sun altitude
Rises 20:55:42 0° 278° (W) 2,339 0.9 -23.6°
Reaches altitude 10° 20:57:47 10° 277° (W) 1,476 -0.3 -23.8°
Enters shadow 20:59:38 31° 273° (W) 753 -2.1 -24.0°
